DECAYED

STARLINK-1908, 46747 (Decayed)

Orbit data source: Space-Track

STARLINK-1908, 46747 was a payload satellite owned by SpaceX/Seattle (US) in LEO that was launched on Sat, 24 Oct 2020 UTC via an FALCON 9 launch vehicle from the Air Force Eastern Test Range (AFETR). Payload-class satellites include a variety of spacecraft equipped with specific instruments for various scientific and technological missions. These include communications satellites like Starlink; space stations such as the ISS; scientific satellites like the Hubble; Earth observation satellites from companies like Planet Labs, Umbra, and HawkEye 360; GPS; miniature CubeSats for education and research; and military/defense satellites.

Not visible in the next 10 days
Identifier
46747, 2020-074J
Orbit
Decayed
Country
Flag of USUS
Related business
Manufacturer
SpaceX/Seattle
Mission
Decayed Commercial Communications
Bus & Motor
STARLINK, Unknown motor
Mass
260 kg wet, ~248 kg dry
Launch date (UTC)
2020-10-24 (6 years ago)
Launch vehicle
FALCON 9
Launch site
Air Force Eastern Test Range (AFETR)
Object type
Payload
Rocket body
Debris
Shape & HBR
Box + 1 Pan, 10.1 m
Radar Cross Section
13.562 m², Large (>1 m²)

Expand to show TLE details & history
Last TLE update: 2 years ago

TLE from 2 years ago
0 STARLINK-1908
1 46747U 20074J   25036.82897701  .08862336  12127-4  12197-2 0  9994
2 46747  53.0181 261.8775 0008304 232.6785 185.5828 16.34287441237450
Epoch: 2025-02-05T19:53Z
TLE epoch observation values (Epoch: 2025-02-05T19:53:43.613Z)
Latitude
42.93129°
Longitude
-128.61904°
Altitude
190.645 km
Speed
7.794 km/s
True Right ascension
20h 24m 06s
True Declination
42° 44' 42"
Sunlit
Object was in daylight at epoch
Visualization orbit readout
Latitude
Unknown
Longitude
Unknown
Altitude
Unknown
Speed
Unknown
Apparent Right ascension
Unknown
Apparent Declination
Unknown
Sunlit
N/A
Visualization observer readout
Local Sidereal Time
13:11:25
Azimuth
Unknown
Elevation
Unknown
Doppler factor
Unknown
Orbital elements
Apogee altitude
186.781 km
Perigee altitude
175.887 km
Semi-major axis
6,559.471 km
Eccentricity
0.00083
Inclination
53.0181°
RAAN
261.8775°
Arg. of periapsis
232.6785°
True anomaly
185.57355°
Mean anomaly
185.5828°
Eccentric anomaly
185.57818°
Mean motion
4.08545 °/min
Orbital period
88.12 mins
BSTAR
0.0012197
Loading maneuver chart data...
Computing Atmospheric mass density...

Documentation

Showing up to 5 results
|